STARLINK-36441, 67469

Orbit data source: Space-Track

STARLINK-36441, 67469 is a payload satellite owned by SpaceX/Seattle (US) in LEO that was launched on Wed, 14 Jan 2026 UTC via an FALCON 9 launch vehicle from the Air Force Eastern Test Range (AFETR). Payload-class satellites include a variety of spacecraft equipped with specific instruments for various scientific and technological missions. These include communications satellites like Starlink; space stations such as the ISS; scientific satellites like the Hubble; Earth observation satellites from companies like Planet Labs, Umbra, and HawkEye 360; GPS; miniature CubeSats for education and research; and military/defense satellites.

Loading next visibility...
Identifier
67469, 2026-008AA
Orbit
LEO
Country
Flag of USUS
Related business
Manufacturer
SpaceX/Seattle
Mission
Operational spacecraft
Bus & Motor
STARLINK V2MO, Unknown motor
Mass
575 kg wet, ~530 kg dry
Launch date (UTC)
2026-01-14 (2 months ago)
Launch vehicle
FALCON 9
Launch site
Air Force Eastern Test Range (AFETR)
Object type
Payload
Rocket body
Debris
Shape & HBR
Unknown shape, 17.7 m
Radar Cross Section
RCS unknown

Expand to show TLE details & history
Last TLE update: 11 hours ago

TLE from 11 hours ago
0 STARLINK-36441
1 67469U 26008AA  26062.83773227  .00045841  00000-0  16635-2 0  9998
2 67469  43.0014 238.5702 0002718 261.1998  98.8546 15.27608237  8679
Epoch: 2026-03-03T20:06Z
TLE epoch observation values (Epoch: 2026-03-03T20:06:20.068Z)
Latitude
Longitude
135.37553°
Altitude
483.028 km
Speed
7.626 km/s
True Right ascension
15h 54m 16s
True Declination
0° 00' 00"
Sunlit
Object was in daylight at epoch
Visualization orbit readout
Latitude
Unknown
Longitude
Unknown
Altitude
Unknown
Speed
Unknown
Apparent Right ascension
Unknown
Apparent Declination
Unknown
Sunlit
N/A
Visualization observer readout
Local Sidereal Time
11:20:18
Azimuth
Unknown
Elevation
Unknown
Doppler factor
Unknown
Orbital elements
Apogee altitude
486.775 km
Perigee altitude
483.044 km
Semi-major axis
6,863.047 km
Eccentricity
0.00027
Inclination
43.0014°
RAAN
238.5702°
Arg. of periapsis
261.1998°
True anomaly
98.88537°
Mean anomaly
98.8546°
Eccentric anomaly
98.86999°
Mean motion
3.8174 °/min
Orbital period
94.31 mins
BSTAR
0.0016635
Loading maneuver chart data...
Computing Atmospheric mass density...
Loading historical data...
Loading historical data...
Loading historical data...
Loading historical data...
Loading historical data...
Loading historical data...
Loading historical data...

Documentation

Showing up to 5 results
|